Simultaneous Nadir Overpasses (SNOs) Predictions

Prediction of SNOs between GOES-17 and TERRA Satellite Orbit:

Table of predicted SNOs for the next 14.0 days since TLE Epoch: 11/11/2023
Index Date Time (GOES-17) GOES-17 Lat,Lon TERRA Lat,Lon Distance(km) Time Diff (sec)
1 11/11/2023 16:53:00 0.01,-104.68 -0.29,-103.20 166.91 80
2 11/12/2023 05:13:14 -0.01,-104.66 -0.72,-108.13 393.51 80
3 11/14/2023 04:53:53 -0.00,-104.66 0.11,-104.10 63.72 80
4 11/14/2023 17:14:00 0.00,-104.67 0.89,-108.99 490.82 80
5 11/16/2023 16:57:19 -0.01,-104.67 0.03,-104.97 34.03 80
6 11/18/2023 16:43:17 -0.01,-104.66 -0.79,-100.94 423.11 80
7 11/19/2023 05:03:31 0.01,-104.65 -0.24,-105.85 136.95 80
8 11/21/2023 04:44:09 0.01,-104.64 0.62,-101.82 320.52 80
9 11/21/2023 17:04:15 -0.01,-104.65 0.42,-106.71 234.27 80
10 11/23/2023 16:50:12 -0.01,-104.64 -0.40,-102.67 223.97 80
11 11/24/2023 05:10:26 0.01,-104.64 -0.60,-107.59 335.24 80
